Terug naar catalogus

CZ-6A DEB

ActiefSSO
NORAD 54299·DEBRIS·🇨🇳 China

Gelanceerd Nov 11, 2022 vanaf Taiyuan Satellite Launch Center

Loading…

Volgende Passages (komende 24 uur)

TLE

VersSource: Space-Track

Epoch: Sep 14, 2026, 05:10 UTC

1 54299U 22151AS  26257.21593020  .00000120  00000-0  95182-4 0  9996
2 54299  98.8626 251.2667 0055399  99.0658 261.6786 14.07650295196659

Volg CZ-6A DEB in realtime met AllMySat

Download on the App Store